• In Uzbekistan
  • List of Countries
  • For 7 days
  • Water Temperature
  • Weather Map
  • Weather Widgets
  • user-avatar
    Login

    Hourly Weather Bujumbura

    Today, 27 January, Monday

    Time Temperature Precipitation Wind Pressure Humidity
    00:00 +24°C° 1.8 mm 1 mps 693 mmHg 97%
    01:00 +24°C° 1.8 mm 1 mps 693 mmHg 96%
    02:00 +24°C° 1.8 mm 1 mps 692 mmHg 96%
    03:00 +24°C° 0.1 mm 1 mps 692 mmHg 96%
    04:00 +24°C° 0.1 mm 1 mps 692 mmHg 95%
    05:00 +24°C° 0.1 mm 1 mps 692 mmHg 94%
    06:00 +24°C° 0 mm 1 mps 693 mmHg 93%
    07:00 +25°C° 0 mm 1 mps 693 mmHg 91%
    08:00 +25°C° 0 mm 1 mps 694 mmHg 90%
    09:00 +26°C° 0.3 mm 1 mps 694 mmHg 86%
    10:00 +27°C° 0.3 mm 1 mps 693 mmHg 82%
    11:00 +28°C° 0.3 mm 1 mps 693 mmHg 78%
    12:00 +29°C° 0.4 mm 1 mps 693 mmHg 76%
    13:00 +29°C° 0.4 mm 1 mps 692 mmHg 74%
    14:00 +29°C° 0.4 mm 1 mps 692 mmHg 72%
    15:00 +29°C° 0.2 mm 1 mps 691 mmHg 75%
    16:00 +28°C° 0.2 mm 2 mps 691 mmHg 78%
    17:00 +28°C° 0.2 mm 3 mps 691 mmHg 81%
    18:00 +27°C° 0.2 mm 2 mps 691 mmHg 83%
    19:00 +26°C° 0.2 mm 2 mps 692 mmHg 86%
    20:00 +25°C° 0.2 mm 2 mps 692 mmHg 88%
    21:00 +25°C° 0.1 mm 2 mps 692 mmHg 88%
    22:00 +24°C° 0.1 mm 2 mps 693 mmHg 89%
    23:00 +24°C° 0.1 mm 1 mps 693 mmHg 89%

    Tomorrow, 28 January, Tuesday

    Time Temperature Precipitation Wind Pressure Humidity
    00:00 +24°C° 0 mm 1 mps 693 mmHg 89%
    01:00 +24°C° 0 mm 1 mps 692 mmHg 89%
    02:00 +23°C° 0 mm 1 mps 692 mmHg 90%
    03:00 +23°C° 0 mm 1 mps 692 mmHg 90%
    04:00 +23°C° 0 mm 1 mps 692 mmHg 90%
    05:00 +21°C° 0 mm 0 mps 692 mmHg 90%
    06:00 +21°C° 0.1 mm 0 mps 692 mmHg 89%
    07:00 +22°C° 0.1 mm 0 mps 693 mmHg 88%
    08:00 +22°C° 0.1 mm 0 mps 693 mmHg 88%
    09:00 +23°C° 0.2 mm 0 mps 693 mmHg 87%
    10:00 +23°C° 0.2 mm 0 mps 693 mmHg 87%
    11:00 +24°C° 0.2 mm 0 mps 693 mmHg 87%
    12:00 +27°C° 0.2 mm 1 mps 692 mmHg 81%
    13:00 +28°C° 0.2 mm 3 mps 692 mmHg 75%
    14:00 +29°C° 0.2 mm 4 mps 691 mmHg 69%
    15:00 +28°C° 0.6 mm 4 mps 691 mmHg 76%
    16:00 +27°C° 0.6 mm 3 mps 691 mmHg 84%
    17:00 +26°C° 0.6 mm 3 mps 691 mmHg 91%
    18:00 +25°C° 1.1 mm 3 mps 692 mmHg 92%
    19:00 +24°C° 1.1 mm 3 mps 692 mmHg 93%
    20:00 +24°C° 1.1 mm 3 mps 693 mmHg 94%
    21:00 +24°C° 1.8 mm 2 mps 693 mmHg 95%
    22:00 +24°C° 1.8 mm 2 mps 693 mmHg 96%
    23:00 +23°C° 1.8 mm 1 mps 693 mmHg 97%

    Day after tomorrow, 29 January, Wednesday

    Time Temperature Precipitation Wind Pressure Humidity
    00:00 +23°C° 1.7 mm 1 mps 693 mmHg 97%
    01:00 +23°C° 1.7 mm 1 mps 693 mmHg 97%
    02:00 +23°C° 1.7 mm 1 mps 692 mmHg 97%
    03:00 +23°C° 1 mm 1 mps 692 mmHg 97%
    04:00 +23°C° 1 mm 2 mps 692 mmHg 96%
    05:00 +23°C° 1 mm 2 mps 692 mmHg 96%
    06:00 +23°C° 1 mm 2 mps 693 mmHg 96%
    07:00 +23°C° 1 mm 2 mps 694 mmHg 96%
    08:00 +23°C° 1 mm 2 mps 694 mmHg 96%
    09:00 +24°C° 1.2 mm 1 mps 694 mmHg 96%
    10:00 +24°C° 1.2 mm 1 mps 694 mmHg 96%
    11:00 +24°C° 1.2 mm 1 mps 694 mmHg 96%
    12:00 +24°C° 1.3 mm 1 mps 694 mmHg 96%
    13:00 +24°C° 1.3 mm 1 mps 693 mmHg 96%
    14:00 +24°C° 1.3 mm 1 mps 693 mmHg 96%
    15:00 +24°C° 1 mm 1 mps 693 mmHg 96%
    16:00 +23°C° 1 mm 1 mps 693 mmHg 96%
    17:00 +21°C° 1 mm 0 mps 693 mmHg 96%
    18:00 +21°C° 0.1 mm 0 mps 693 mmHg 95%
    19:00 +21°C° 0.1 mm 0 mps 694 mmHg 94%
    20:00 +21°C° 0.1 mm 0 mps 694 mmHg 93%
    21:00 +23°C° 0 mm 1 mps 694 mmHg 93%
    22:00 +23°C° 0 mm 1 mps 694 mmHg 93%
    23:00 +21°C° 0 mm 2 mps 694 mmHg 93%

    30 January, Thursday

    Time Temperature Precipitation Wind Pressure Humidity
    00:00 +21°C° 0 mm 2 mps 694 mmHg 92%
    01:00 +21°C° 0 mm 2 mps 693 mmHg 92%
    02:00 +21°C° 0 mm 2 mps 693 mmHg 92%
    03:00 +21°C° 0 mm 2 mps 693 mmHg 91%
    04:00 +21°C° 0 mm 2 mps 693 mmHg 91%
    05:00 +22°C° 0 mm 1 mps 693 mmHg 90%
    06:00 +23°C° 0 mm 1 mps 693 mmHg 89%
    07:00 +23°C° 0 mm 1 mps 694 mmHg 88%
    08:00 +22°C° 0 mm 0 mps 694 mmHg 86%
    09:00 +25°C° 0 mm 1 mps 694 mmHg 80%
    10:00 +27°C° 0 mm 1 mps 694 mmHg 73%
    11:00 +29°C° 0 mm 1 mps 694 mmHg 67%
    12:00 +29°C° 0.4 mm 2 mps 693 mmHg 70%
    13:00 +29°C° 0.4 mm 2 mps 692 mmHg 74%
    14:00 +29°C° 0.4 mm 2 mps 692 mmHg 77%
    15:00 +28°C° 0.6 mm 2 mps 691 mmHg 80%
    16:00 +28°C° 0.6 mm 1 mps 691 mmHg 82%
    17:00 +27°C° 0.6 mm 1 mps 691 mmHg 84%
    18:00 +26°C° 0.1 mm 1 mps 691 mmHg 86%
    19:00 +25°C° 0.1 mm 1 mps 692 mmHg 88%
    20:00 +23°C° 0.1 mm 1 mps 692 mmHg 90%
    21:00 +23°C° 0 mm 1 mps 693 mmHg 89%
    22:00 +21°C° 0 mm 0 mps 693 mmHg 88%
    23:00 +21°C° 0 mm 0 mps 693 mmHg 87%

    31 January, Friday

    Time Temperature Precipitation Wind Pressure Humidity
    00:00 +23°C° 0 mm 1 mps 693 mmHg 87%
    01:00 +23°C° 0 mm 1 mps 693 mmHg 87%
    02:00 +22°C° 0 mm 1 mps 693 mmHg 87%
    03:00 +22°C° 0 mm 1 mps 693 mmHg 87%
    04:00 +22°C° 0 mm 1 mps 693 mmHg 87%
    05:00 +22°C° 0 mm 1 mps 693 mmHg 86%
    06:00 +23°C° 0 mm 1 mps 693 mmHg 85%
    07:00 +24°C° 0 mm 1 mps 694 mmHg 84%
    08:00 +25°C° 0 mm 1 mps 694 mmHg 82%
    09:00 +27°C° 0.5 mm 1 mps 694 mmHg 80%
    10:00 +28°C° 0.5 mm 1 mps 694 mmHg 77%
    11:00 +29°C° 0.5 mm 1 mps 693 mmHg 75%
    12:00 +29°C° 1.1 mm 1 mps 693 mmHg 75%
    13:00 +29°C° 1.1 mm 1 mps 692 mmHg 75%
    14:00 +29°C° 1.1 mm 1 mps 691 mmHg 74%
    15:00 +29°C° 0.7 mm 1 mps 691 mmHg 76%
    16:00 +28°C° 0.7 mm 1 mps 691 mmHg 79%
    17:00 +28°C° 0.7 mm 1 mps 690 mmHg 81%
    18:00 +27°C° 0.1 mm 1 mps 691 mmHg 82%
    19:00 +26°C° 0.1 mm 1 mps 691 mmHg 83%
    20:00 +25°C° 0.1 mm 1 mps 692 mmHg 83%
    21:00 +25°C° 0.2 mm 1 mps 692 mmHg 84%
    22:00 +25°C° 0.2 mm 1 mps 693 mmHg 84%
    23:00 +24°C° 0.2 mm 1 mps 693 mmHg 84%

    1 February, Saturday

    Time Temperature Precipitation Wind Pressure Humidity
    00:00 +24°C° 0.1 mm 1 mps 693 mmHg 85%
    01:00 +24°C° 0.1 mm 1 mps 692 mmHg 85%
    02:00 +23°C° 0.1 mm 1 mps 692 mmHg 86%
    03:00 +23°C° 0.3 mm 1 mps 692 mmHg 87%
    04:00 +23°C° 0.3 mm 1 mps 692 mmHg 88%
    05:00 +23°C° 0.3 mm 1 mps 692 mmHg 89%
    06:00 +23°C° 0.4 mm 1 mps 692 mmHg 89%
    07:00 +24°C° 0.4 mm 1 mps 693 mmHg 89%
    08:00 +24°C° 0.4 mm 2 mps 693 mmHg 89%
    09:00 +25°C° 0.2 mm 2 mps 693 mmHg 86%
    10:00 +26°C° 0.2 mm 2 mps 693 mmHg 83%
    11:00 +26°C° 0.2 mm 2 mps 693 mmHg 81%
    12:00 +27°C° 0.1 mm 1 mps 692 mmHg 77%
    13:00 +28°C° 0.1 mm 1 mps 692 mmHg 73%
    14:00 +29°C° 0.1 mm 1 mps 691 mmHg 69%
    15:00 +29°C° 0.3 mm 1 mps 691 mmHg 71%
    16:00 +29°C° 0.3 mm 1 mps 691 mmHg 73%
    17:00 +28°C° 0.3 mm 1 mps 690 mmHg 76%
    18:00 +27°C° 0.1 mm 1 mps 691 mmHg 78%
    19:00 +26°C° 0.1 mm 1 mps 691 mmHg 80%
    20:00 +24°C° 0.1 mm 1 mps 692 mmHg 81%
    21:00 +24°C° 0 mm 1 mps 692 mmHg 81%
    22:00 +22°C° 0 mm 0 mps 692 mmHg 81%
    23:00 +22°C° 0 mm 0 mps 693 mmHg 80%
    Show more